This is the latest recevied weather packets stored in our database for station/object F6BIJ-13. If no packets are shown the sender has not sent any weather packets the latest 10 day(s).
| Time | Temp. | Humidity | Pressure | Rain* | Wind** | Luminosity | Snow |
|---|---|---|---|---|---|---|---|
| 1778153437 | 18.33° C | 56% | 1014.5 hPa | 0 mm | - | - | - |
| 1778153077 | 19.44° C | 60% | 1014.4 hPa | 0 mm | - | - | - |
| 1778152717 | 18.89° C | 55% | 1014.5 hPa | 0 mm | - | - | - |
| 1778152357 | 18.33° C | 60% | 1014.4 hPa | 0 mm | - | - | - |
| 1778151997 | 17.78° C | 57% | 1014.6 hPa | 0 mm | - | - | - |
| 1778151637 | 18.33° C | 61% | 1014.6 hPa | 0 mm | - | - | - |
| 1778150917 | 18.89° C | 56% | 1014.8 hPa | 0 mm | - | - | - |
| 1778150917 | 18.89° C | 56% | 1014.8 hPa | 0 mm | - | - | - |
| 1778150557 | 17.78° C | 58% | 1014.8 hPa | 0 mm | - | - | - |
| 1778150198 | 17.78° C | 61% | 1014.7 hPa | 0 mm | - | - | - |
| 1778149837 | 17.78° C | 64% | 1014.7 hPa | 0 mm | - | - | - |
| 1778149477 | 17.78° C | 59% | 1014.7 hPa | 0 mm | - | - | - |
| 1778149117 | 17.78° C | 58% | 1014.8 hPa | 0 mm | - | - | - |
| 1778148757 | 17.78° C | 65% | 1015 hPa | 0 mm | - | - | - |
| 1778148397 | 17.78° C | 61% | 1014.8 hPa | 0 mm | - | - | - |
| 1778148037 | 17.22° C | 60% | 1014.8 hPa | 0 mm | - | - | - |
| 1778147677 | 17.78° C | 63% | 1014.9 hPa | 0 mm | - | - | - |
| 1778147677 | 17.78° C | 63% | 1014.9 hPa | 0 mm | - | - | - |
| 1778147317 | 17.22° C | 63% | 1014.9 hPa | 0 mm | - | - | - |
| 1778146957 | 18.33° C | 63% | 1014.9 hPa | 0 mm | - | - | - |
| 1778146600 | 17.78° C | 67% | 1015 hPa | 0 mm | - | - | - |
| 1778146597 | 17.78° C | 67% | 1015 hPa | 0 mm | - | - | - |
| 1778146236 | 17.22° C | 62% | 1014.9 hPa | 0 mm | - | - | - |
| 1778145877 | 17.78° C | 66% | 1014.9 hPa | 0 mm | - | - | - |
| 1778145517 | 16.67° C | 65% | 1014.7 hPa | 0 mm | - | - | - |
* Rain latest 24 hours (hover to see other rain measurements)
** Current wind speed in m/s (hover to see current wind gust speed)